This demonstration page uses our WeatherBlox Daily Observations layout. Learn more.

Left ArrowRight Arrow

44.8408, -93.29828

Hourly Observations for August 2, 2017

Temp ( °F °C ) Dew Point ( °F °C ) Humidity (%) Winds ( mph kmh ) Pressure ( in mb ) Visibility ( mi km ) Precip ( " mm )
12:53 am 00:53 Cloudy 74 23.3 60 15.6 62 62 N 8 13 30.02 1017 10 16 0.00 0.00
1:53 am 01:53 Cloudy 73 22.8 60 15.6 64 64 N 8 13 30.03 1017 10 16 0.00 0.00
2:53 am 02:53 Partly Cloudy 71 21.7 59 15 66 66 N 8 13 30.04 1017 10 16 0.00 0.00
3:53 am 03:53 Partly Cloudy 70 21.1 59 15 68 68 N 8 13 30.04 1017 10 16 0.00 0.00
4:53 am 04:53 Mostly Cloudy 70 21.1 58 14.4 66 66 N 9 15 30.04 1017 10 16 0.00 0.00
5:53 am 05:53 Mostly Clear 68 20 59 15 73 73 N 6 9 30.05 1018 10 16 0.00 0.00
6:53 am 06:53 Partly Cloudy 67 19.4 59 15 76 76 N 10 17 30.08 1019 10 16 0.00 0.00
7:53 am 07:53 Partly Cloudy 69 20.6 59 15 70 70 NNE 6 9 30.08 1019 10 16 0.00 0.00
8:53 am 08:53 Partly Cloudy 73 22.8 59 15 62 62 NNE 8 13 30.07 1018 10 16 0.00 0.00
9:53 am 09:53 Mostly Cloudy 75 23.9 59 15 58 58 N 8 13 30.08 1019 10 16 0.00 0.00
10:53 am 10:53 Partly Cloudy 78 25.6 59 15 52 52 N 7 11 30.08 1019 10 16 0.00 0.00
11:53 am 11:53 Partly Cloudy 81 27.2 58 14.4 45 45 N 10 17 30.07 1018 10 16 0.00 0.00
12:53 pm 12:53 Partly Cloudy 81 27.2 55 12.8 41 41 VRB 6 9 30.07 1018 10 16 0.00 0.00
1:53 pm 13:53 Mostly Sunny 80 26.7 54 12.2 41 41 NNE 5 7 30.06 1018 10 16 0.00 0.00
2:53 pm 14:53 Partly Cloudy 82 27.8 55 12.8 40 40 NNE 8 13 30.04 1017 10 16 0.00 0.00
3:53 pm 15:53 Mostly Cloudy 83 28.3 55 12.8 38 38 NNE 8 13 30.04 1017 10 16 0.00 0.00
4:53 pm 16:53 Mostly Cloudy 80 26.7 56 13.3 44 44 NNE 13 20 30.03 1017 10 16 0.00 0.00
5:53 pm 17:53 Mostly Cloudy 80 26.7 56 13.3 44 44 NNE 10 17 30.03 1017 10 16 0.00 0.00
6:53 pm 18:53 Cloudy 79 26.1 57 13.9 47 47 NE 13 20 30.02 1017 10 16 0.00 0.00
7:53 pm 19:53 Cloudy 76 24.4 57 13.9 52 52 ENE 13 20 30.03 1017 10 16 0.00 0.00
8:53 pm 20:53 Mostly Cloudy 74 23.3 58 14.4 57 57 ENE 16 26 30.04 1017 10 16 0.00 0.00
9:53 pm 21:53 Mostly Cloudy 72 22.2 56 13.3 57 57 ENE 15 24 30.05 1018 10 16 0.00 0.00
10:53 pm 22:53 Cloudy 70 21.1 56 13.3 61 61 ENE 14 22 30.05 1018 10 16 0.00 0.00
11:53 pm 23:53 Cloudy 69 20.6 54 12.2 59 59 E 15 24 30.05 1018 10 16 0.00 0.00

Powered by AerisWeather